Regional Weather Roundup
Issued by NWS Albany, NY

Home | Current Version | Previous Version | Text Only | Print | Product List | Glossary On
Versions: 1 2 3 4 5 6 7 8 9 10 11 12 13 14 15 16 17 18 19 20 21 22 23 24 25 26 27 28 29 30 31 32 33 34 35 36 37 38 39 40 41 42 43 44 45 46 47 48 49 50
000
ASUS41 KALY 310010
RWRALY

NEW YORK STATE HOURLY WEATHER ROUNDUP
NATIONAL WEATHER SERVICE ALBANY NY
800 PM EDT TUE AUG 30 2016

NOTE: "FAIR" INDICATES FEW OR NO CLOUDS BELOW 12,000 FEET WITH NO
SIGNIFICANT WEATHER AND/OR NO OBSTRUCTIONS TO VISIBILITY.

NYZ032-033-038>043-046>054-057>066-NYZ062>081-082-084-310100-
EAST


CITY           SKY/WX    TMP DP  RH WIND       PRES   REMARKS
ALBANY         PTCLDY    73  59  61 CALM      30.03F
GLENS FALLS    CLEAR     73  58  59 SW7       30.02S
POUGHKEEPSIE   CLEAR     72  61  68 CALM      30.02S
NEWBURGH       PTCLDY    81  61  50 CALM      30.05
MONTGOMERY     CLOUDY    72  64  76 N3        30.04S
WHITE PLAINS   PTCLDY    74  62  66 S7        30.05S
ISLIP          MOCLDY    74  63  68 S7        30.05S
NEW YORK CITY  MOCLDY    79  67  66 S10       30.04S
CENTRAL PARK   PTCLDY    76  65  68 CALM      30.07S
$$

NYZ005>009-017-018-044>046-055-056-310100-
CENTRAL


CITY           SKY/WX    TMP DP  RH WIND       PRES   REMARKS
FULTON         MOCLDY    70  64  81 CALM      30.04S
SYRACUSE       MOCLDY    72  62  71 E5        30.03F
ROME           CLEAR     68  63  84 CALM      30.05F
ELMIRA         CLOUDY    70  62  76 CALM      30.05S
BINGHAMTON     CLOUDY    72  55  55 CALM      30.09F
MONTICELLO     CLOUDY    70  55  60 NW3       30.10S
$$

NYZ026>034-041>043-087-310100-
NORTH


CITY           SKY/WX    TMP DP  RH WIND       PRES   REMARKS
WATERTOWN      CLEAR     71  58  63 S6        30.01F
FORT DRUM      NOT AVBL
MASSENA        CLOUDY    71  60  68 S5        29.98F
SARANAC LAKE   MOCLDY    67  58  72 W3        30.06S
PLATTSBURGH    CLOUDY    70  64  81 CALM      30.00S
$$

NYZ001>004-010>016-019>021-085-310100-
WEST


CITY           SKY/WX    TMP DP  RH WIND       PRES   REMARKS
NIAGARA FALLS  MOCLDY    77  55  46 SW7       30.04S
BUFFALO        MOCLDY    75  58  55 SW7       30.05F
DUNKIRK        CLOUDY    71  63  75 CALM      30.06F
JAMESTOWN      PTCLDY    70  61  73 N7        30.10F
WELLSVILLE     PTCLDY    71  57  61 NW5       30.13F
ROCHESTER      CLOUDY    75  63  66 NE3       30.05F
PENN YAN       CLOUDY    71  61  70 S5        30.06F
$$

             KEY
       WCI = WIND CHILL INDEX
       VSB = VISIBILITY
       HX  = HEAT INDEX
$$



USA.gov is the U.S. government's official web portal to all federal, state and local government web resources and services.